Year,Month,Day,Hour,Minute,Value (Times are PST for windspeed in km/hr)
2011,04,09,00,00,0.00
2011,04,09,00,01,0.00
2011,04,09,00,02,0.00
2011,04,09,00,03,0.00
2011,04,09,00,04,1.10
2011,04,09,00,05,2.80
2011,04,09,00,06,1.90
2011,04,09,00,07,1.20
2011,04,09,00,08,0.30
2011,04,09,00,09,0.10
2011,04,09,00,10,0.20
2011,04,09,00,11,0.00
2011,04,09,00,12,0.10
2011,04,09,00,13,0.00
2011,04,09,00,14,0.00
2011,04,09,00,15,0.00
2011,04,09,00,16,0.20
2011,04,09,00,17,1.50
2011,04,09,00,18,2.10
2011,04,09,00,19,2.40
2011,04,09,00,20,2.10
2011,04,09,00,21,1.80
2011,04,09,00,22,1.20
2011,04,09,00,23,0.00
2011,04,09,00,24,0.00
2011,04,09,00,25,0.00
2011,04,09,00,26,0.50
2011,04,09,00,27,2.10
2011,04,09,00,28,1.80
2011,04,09,00,29,1.40
2011,04,09,00,30,2.10
2011,04,09,00,31,2.90
2011,04,09,00,32,1.80
2011,04,09,00,33,1.60
2011,04,09,00,34,1.50
2011,04,09,00,35,1.90
2011,04,09,00,36,2.00
2011,04,09,00,37,1.10
2011,04,09,00,38,1.40
2011,04,09,00,39,2.40
2011,04,09,00,40,3.10
2011,04,09,00,41,2.10
2011,04,09,00,42,0.90
2011,04,09,00,43,1.50
2011,04,09,00,44,1.80
2011,04,09,00,45,2.00
2011,04,09,00,46,1.70
2011,04,09,00,47,1.00
2011,04,09,00,48,1.80
2011,04,09,00,49,1.00
2011,04,09,00,50,1.00
2011,04,09,00,51,0.80
2011,04,09,00,52,0.10
2011,04,09,00,53,1.30
2011,04,09,00,54,2.10
2011,04,09,00,55,2.70
2011,04,09,00,56,2.10
2011,04,09,00,57,3.10
2011,04,09,00,58,2.20
2011,04,09,00,59,4.50
2011,04,09,01,00,4.70
2011,04,09,01,01,7.70
2011,04,09,01,02,7.30
2011,04,09,01,03,7.40
2011,04,09,01,04,5.00
2011,04,09,01,05,6.40
2011,04,09,01,06,5.40
2011,04,09,01,07,2.90
2011,04,09,01,08,4.10
2011,04,09,01,09,6.90
2011,04,09,01,10,7.50
2011,04,09,01,11,8.20
2011,04,09,01,12,6.10
2011,04,09,01,13,5.10
2011,04,09,01,14,4.20
2011,04,09,01,15,3.20
2011,04,09,01,16,3.00
2011,04,09,01,17,4.70
2011,04,09,01,18,6.30
2011,04,09,01,19,4.30
2011,04,09,01,20,6.60
2011,04,09,01,21,6.40
2011,04,09,01,22,4.80
2011,04,09,01,23,0.50
2011,04,09,01,24,2.60
2011,04,09,01,25,6.40
2011,04,09,01,26,4.10
2011,04,09,01,27,3.50
2011,04,09,01,28,5.80
2011,04,09,01,29,3.30
2011,04,09,01,30,3.00
2011,04,09,01,31,3.20
2011,04,09,01,32,3.10
2011,04,09,01,33,3.00
2011,04,09,01,34,2.70
2011,04,09,01,35,2.00
2011,04,09,01,36,5.30
2011,04,09,01,37,3.80
2011,04,09,01,38,3.10
2011,04,09,01,39,0.60
2011,04,09,01,40,0.20
2011,04,09,01,41,0.80
2011,04,09,01,42,0.10
2011,04,09,01,43,1.20
2011,04,09,01,44,0.10
2011,04,09,01,45,0.50
2011,04,09,01,46,1.60
2011,04,09,01,47,0.30
2011,04,09,01,48,1.70
2011,04,09,01,49,1.80
2011,04,09,01,50,0.10
2011,04,09,01,51,0.00
2011,04,09,01,52,0.60
2011,04,09,01,53,2.40
2011,04,09,01,54,3.20
2011,04,09,01,55,2.80
2011,04,09,01,56,2.20
2011,04,09,01,57,4.70
2011,04,09,01,58,3.40
2011,04,09,01,59,4.00
2011,04,09,02,00,3.40
2011,04,09,02,01,2.30
2011,04,09,02,02,2.60
2011,04,09,02,03,1.90
2011,04,09,02,04,1.40
2011,04,09,02,05,1.60
2011,04,09,02,06,1.50
2011,04,09,02,07,1.80
2011,04,09,02,08,1.20
2011,04,09,02,09,1.50
2011,04,09,02,10,2.10
2011,04,09,02,11,3.40
2011,04,09,02,12,3.80
2011,04,09,02,13,4.90
2011,04,09,02,14,4.70
2011,04,09,02,15,2.40
2011,04,09,02,16,2.40
2011,04,09,02,17,1.70
2011,04,09,02,18,2.80
2011,04,09,02,19,1.70
2011,04,09,02,20,2.10
2011,04,09,02,21,2.80
2011,04,09,02,22,2.50
2011,04,09,02,23,2.10
2011,04,09,02,24,2.80
2011,04,09,02,25,1.80
2011,04,09,02,26,1.20
2011,04,09,02,27,0.00
2011,04,09,02,28,0.00
2011,04,09,02,29,0.10
2011,04,09,02,30,2.10
2011,04,09,02,31,3.00
2011,04,09,02,32,1.50
2011,04,09,02,33,1.60
2011,04,09,02,34,1.90
2011,04,09,02,35,0.90
2011,04,09,02,36,0.80
2011,04,09,02,37,1.40
2011,04,09,02,38,1.10
2011,04,09,02,39,1.60
2011,04,09,02,40,0.20
2011,04,09,02,41,0.00
2011,04,09,02,42,0.00
2011,04,09,02,43,0.10
2011,04,09,02,44,1.60
2011,04,09,02,45,1.60
2011,04,09,02,46,2.20
2011,04,09,02,47,1.90
2011,04,09,02,48,2.00
2011,04,09,02,49,1.80
2011,04,09,02,50,1.50
2011,04,09,02,51,0.20
2011,04,09,02,52,0.00
2011,04,09,02,53,0.00
2011,04,09,02,54,0.00
2011,04,09,02,55,0.00
2011,04,09,02,56,0.00
2011,04,09,02,57,0.00
2011,04,09,02,58,0.20
2011,04,09,02,59,0.50
2011,04,09,03,00,1.50
2011,04,09,03,01,4.80
2011,04,09,03,02,6.10
2011,04,09,03,03,3.30
2011,04,09,03,06,2.50
2011,04,09,03,07,2.60
2011,04,09,03,08,2.10
2011,04,09,03,09,1.80
2011,04,09,03,10,1.50
2011,04,09,03,11,1.60
2011,04,09,03,12,2.80
2011,04,09,03,13,1.60
2011,04,09,03,14,0.80
2011,04,09,03,15,0.00
2011,04,09,03,16,0.00
2011,04,09,03,17,0.00
2011,04,09,03,18,0.10
2011,04,09,03,19,0.50
2011,04,09,03,20,1.10
2011,04,09,03,21,1.80
2011,04,09,03,22,1.70
2011,04,09,03,23,2.80
2011,04,09,03,24,2.10
2011,04,09,03,25,2.10
2011,04,09,03,26,1.70
2011,04,09,03,27,0.20
2011,04,09,03,28,2.60
2011,04,09,03,29,3.90
2011,04,09,03,30,3.90
2011,04,09,03,31,3.20
2011,04,09,03,32,4.70
2011,04,09,03,33,4.70
2011,04,09,03,34,2.60
2011,04,09,03,35,2.20
2011,04,09,03,36,2.80
2011,04,09,03,37,4.00
2011,04,09,03,38,3.20
2011,04,09,03,39,2.70
2011,04,09,03,40,3.70
2011,04,09,03,41,3.30
2011,04,09,03,42,3.10
2011,04,09,03,43,3.90
2011,04,09,03,44,2.60
2011,04,09,03,45,2.10
2011,04,09,03,46,0.10
2011,04,09,03,47,0.10
2011,04,09,03,48,0.10
2011,04,09,03,49,0.00
2011,04,09,03,50,0.10
2011,04,09,03,51,0.80
2011,04,09,03,52,1.00
2011,04,09,03,53,1.60
2011,04,09,03,54,1.60
2011,04,09,03,55,1.30
2011,04,09,03,56,0.30
2011,04,09,03,57,0.80
2011,04,09,03,58,1.10
2011,04,09,03,59,0.00
2011,04,09,04,00,0.00
2011,04,09,04,01,0.40
2011,04,09,04,02,0.80
2011,04,09,04,03,0.20
2011,04,09,04,04,1.20
2011,04,09,04,05,2.50
2011,04,09,04,06,2.80
2011,04,09,04,07,2.30
2011,04,09,04,08,1.10
2011,04,09,04,09,0.20
2011,04,09,04,10,0.10
2011,04,09,04,11,2.00
2011,04,09,04,12,3.10
2011,04,09,04,13,2.40
2011,04,09,04,14,2.10
2011,04,09,04,15,2.90
2011,04,09,04,16,2.50
2011,04,09,04,17,1.90
2011,04,09,04,18,1.20
2011,04,09,04,19,0.50
2011,04,09,04,20,0.00
2011,04,09,04,21,0.50
2011,04,09,04,22,1.50
2011,04,09,04,23,1.00
2011,04,09,04,24,0.20
2011,04,09,04,25,0.00
2011,04,09,04,26,1.20
2011,04,09,04,27,2.10
2011,04,09,04,28,3.10
2011,04,09,04,29,2.60
2011,04,09,04,30,1.60
2011,04,09,04,31,0.90
2011,04,09,04,32,1.60
2011,04,09,04,33,1.50
2011,04,09,04,34,1.10
2011,04,09,04,35,1.60
2011,04,09,04,36,2.10
2011,04,09,04,37,3.10
2011,04,09,04,38,2.60
2011,04,09,04,39,2.00
2011,04,09,04,40,1.40
2011,04,09,04,41,0.80
2011,04,09,04,42,2.40
2011,04,09,04,43,4.90
2011,04,09,04,44,5.20
2011,04,09,04,45,4.20
2011,04,09,04,46,3.10
2011,04,09,04,47,2.40
2011,04,09,04,48,2.00
2011,04,09,04,49,0.50
2011,04,09,04,50,0.00
2011,04,09,04,51,0.00
2011,04,09,04,52,0.00
2011,04,09,04,53,0.00
2011,04,09,04,54,0.00
2011,04,09,04,55,0.00
2011,04,09,04,56,0.40
2011,04,09,04,57,0.20
2011,04,09,04,58,0.20
2011,04,09,04,59,0.60
2011,04,09,05,00,0.20
2011,04,09,05,01,0.00
2011,04,09,05,02,0.00
2011,04,09,05,03,0.30
2011,04,09,05,04,1.50
2011,04,09,05,05,2.10
2011,04,09,05,06,1.30
2011,04,09,05,07,0.20
2011,04,09,05,08,0.10
2011,04,09,05,09,1.50
2011,04,09,05,10,1.00
2011,04,09,05,11,0.30
2011,04,09,05,12,0.10
2011,04,09,05,13,0.00
2011,04,09,05,14,0.00
2011,04,09,05,15,0.00
2011,04,09,05,16,0.70
2011,04,09,05,17,1.20
2011,04,09,05,18,0.70
2011,04,09,05,19,0.10
2011,04,09,05,20,0.00
2011,04,09,05,21,0.00
2011,04,09,05,22,0.00
2011,04,09,05,23,0.00
2011,04,09,05,24,0.00
2011,04,09,05,25,0.00
2011,04,09,05,26,0.00
2011,04,09,05,27,1.20
2011,04,09,05,28,1.80
2011,04,09,05,29,1.40
2011,04,09,05,30,1.80
2011,04,09,05,31,3.50
2011,04,09,05,32,2.40
2011,04,09,05,33,3.10
2011,04,09,05,34,3.40
2011,04,09,05,35,2.20
2011,04,09,05,36,1.50
2011,04,09,05,37,0.90
2011,04,09,05,38,1.20
2011,04,09,05,39,0.20
2011,04,09,05,40,1.50
2011,04,09,05,41,1.80
2011,04,09,05,42,0.00
2011,04,09,05,43,0.00
2011,04,09,05,44,0.30
2011,04,09,05,45,1.10
2011,04,09,05,46,2.70
2011,04,09,05,47,3.70
2011,04,09,05,48,4.00
2011,04,09,05,49,4.00
2011,04,09,05,50,2.80
2011,04,09,05,51,1.90
2011,04,09,05,52,0.60
2011,04,09,05,53,3.30
2011,04,09,05,54,3.00
2011,04,09,05,55,6.20
2011,04,09,05,56,4.00
2011,04,09,05,57,1.50
2011,04,09,05,58,4.60
2011,04,09,05,59,7.30
2011,04,09,06,00,9.10
2011,04,09,06,01,8.40
2011,04,09,06,02,1.50
2011,04,09,06,03,1.50
2011,04,09,06,04,0.80
2011,04,09,06,05,0.30
2011,04,09,06,06,0.40
2011,04,09,06,07,0.00
2011,04,09,06,08,0.20
2011,04,09,06,09,0.00
2011,04,09,06,10,0.50
2011,04,09,06,11,0.00
2011,04,09,06,12,0.00
2011,04,09,06,13,0.00
2011,04,09,06,14,0.00
2011,04,09,06,15,0.00
2011,04,09,06,16,1.20
2011,04,09,06,17,3.00
2011,04,09,06,18,3.20
2011,04,09,06,19,3.90
2011,04,09,06,20,4.60
2011,04,09,06,21,3.10
2011,04,09,06,22,3.90
2011,04,09,06,23,4.60
2011,04,09,06,24,4.70
2011,04,09,06,25,2.80
2011,04,09,06,26,3.40
2011,04,09,06,27,3.60
2011,04,09,06,28,3.10
2011,04,09,06,29,4.30
2011,04,09,06,30,3.70
2011,04,09,06,31,4.40
2011,04,09,06,32,3.70
2011,04,09,06,33,3.10
2011,04,09,06,34,2.00
2011,04,09,06,35,1.00
2011,04,09,06,36,0.20
2011,04,09,06,37,0.00
2011,04,09,06,38,0.00
2011,04,09,06,39,0.00
2011,04,09,06,40,0.00
2011,04,09,06,41,0.00
2011,04,09,06,42,0.00
2011,04,09,06,43,0.00
2011,04,09,06,44,0.00
2011,04,09,06,45,0.00
2011,04,09,06,46,0.00
2011,04,09,06,47,0.00
2011,04,09,06,48,0.00
2011,04,09,06,49,0.20
2011,04,09,06,50,0.60
2011,04,09,06,51,0.00
2011,04,09,06,52,0.00
2011,04,09,06,53,0.00
2011,04,09,06,54,0.00
2011,04,09,06,55,0.00
2011,04,09,06,56,0.00
2011,04,09,06,57,0.00
2011,04,09,06,58,0.20
2011,04,09,06,59,1.80
2011,04,09,07,00,2.30
2011,04,09,07,01,1.70
2011,04,09,07,02,0.90
2011,04,09,07,03,0.00
2011,04,09,07,04,0.00
2011,04,09,07,05,0.10
2011,04,09,07,06,0.00
2011,04,09,07,07,0.20
2011,04,09,07,08,0.50
2011,04,09,07,09,0.00
2011,04,09,07,10,0.00
2011,04,09,07,11,0.00
2011,04,09,07,12,0.00
2011,04,09,07,13,0.00
2011,04,09,07,14,1.00
2011,04,09,07,15,0.40
2011,04,09,07,16,0.30
2011,04,09,07,17,0.10
2011,04,09,07,18,1.10
2011,04,09,07,19,5.50
2011,04,09,07,20,4.00
2011,04,09,07,21,2.70
2011,04,09,07,22,1.60
2011,04,09,07,23,0.20
2011,04,09,07,24,0.70
2011,04,09,07,25,3.60
2011,04,09,07,26,3.60
2011,04,09,07,27,3.60
2011,04,09,07,28,3.10
2011,04,09,07,29,3.90
2011,04,09,07,30,3.20
2011,04,09,07,31,3.90
2011,04,09,07,32,2.60
2011,04,09,07,33,2.10
2011,04,09,07,34,1.40
2011,04,09,07,35,1.00
2011,04,09,07,36,0.00
2011,04,09,07,37,0.80
2011,04,09,07,38,0.10
2011,04,09,07,39,0.00
2011,04,09,07,40,0.30
2011,04,09,07,41,0.30
2011,04,09,07,42,0.00
2011,04,09,07,43,0.00
2011,04,09,07,44,0.00
2011,04,09,07,45,0.00
2011,04,09,07,46,0.40
2011,04,09,07,47,0.00
2011,04,09,07,48,0.30
2011,04,09,07,49,1.80
2011,04,09,07,50,4.30
2011,04,09,07,51,0.80
2011,04,09,07,52,1.50
2011,04,09,07,53,3.80
2011,04,09,07,54,11.40
2011,04,09,07,55,9.60
2011,04,09,07,56,9.30
2011,04,09,07,57,11.00
2011,04,09,07,58,9.10
2011,04,09,07,59,5.40
2011,04,09,08,00,9.50
2011,04,09,08,01,8.00
2011,04,09,08,02,4.60
2011,04,09,08,03,2.50
2011,04,09,08,04,7.70
2011,04,09,08,05,9.00
2011,04,09,08,06,9.70
2011,04,09,08,07,8.90
2011,04,09,08,08,8.30
2011,04,09,08,09,9.70
2011,04,09,08,10,11.80
2011,04,09,08,11,11.20
2011,04,09,08,12,9.40
2011,04,09,08,13,6.30
2011,04,09,08,14,11.30
2011,04,09,08,15,17.20
2011,04,09,08,16,16.40
2011,04,09,08,17,12.90
2011,04,09,08,18,11.70
2011,04,09,08,19,10.00
2011,04,09,08,20,8.10
2011,04,09,08,21,8.60
2011,04,09,08,22,7.50
2011,04,09,08,23,8.60
2011,04,09,08,24,11.60
2011,04,09,08,25,5.00
2011,04,09,08,26,8.30
2011,04,09,08,27,9.20
2011,04,09,08,28,7.80
2011,04,09,08,29,7.80
2011,04,09,08,30,5.10
2011,04,09,08,31,5.80
2011,04,09,08,32,8.50
2011,04,09,08,33,9.70
2011,04,09,08,34,6.50
2011,04,09,08,35,8.40
2011,04,09,08,36,5.80
2011,04,09,08,37,10.00
2011,04,09,08,38,9.30
2011,04,09,08,39,8.50
2011,04,09,08,40,6.40
2011,04,09,08,41,7.90
2011,04,09,08,42,7.60
2011,04,09,08,43,9.20
2011,04,09,08,44,7.40
2011,04,09,08,45,7.30
2011,04,09,08,46,8.60
2011,04,09,08,47,7.10
2011,04,09,08,48,7.70
2011,04,09,08,49,7.70
2011,04,09,08,50,9.70
2011,04,09,08,51,11.20
2011,04,09,08,52,11.00
2011,04,09,08,53,10.90
2011,04,09,08,54,7.10
2011,04,09,08,55,8.50
2011,04,09,08,56,6.30
2011,04,09,08,57,3.80
2011,04,09,08,58,6.20
2011,04,09,08,59,6.20
2011,04,09,09,00,9.50
2011,04,09,09,01,8.00
2011,04,09,09,02,11.10
2011,04,09,09,03,9.30
2011,04,09,09,04,11.60
2011,04,09,09,05,8.70
2011,04,09,09,06,8.60
2011,04,09,09,07,13.00
2011,04,09,09,08,9.20
2011,04,09,09,09,8.80
2011,04,09,09,10,8.70
2011,04,09,09,11,9.90
2011,04,09,09,12,6.90
2011,04,09,09,13,8.30
2011,04,09,09,14,4.60
2011,04,09,09,15,2.90
2011,04,09,09,16,13.10
2011,04,09,09,17,12.70
2011,04,09,09,18,10.00
2011,04,09,09,19,8.90
2011,04,09,09,20,10.50
2011,04,09,09,21,12.00
2011,04,09,09,22,11.70
2011,04,09,09,23,8.80
2011,04,09,09,24,8.20
2011,04,09,09,25,7.10
2011,04,09,09,26,11.20
2011,04,09,09,27,9.50
2011,04,09,09,28,10.00
2011,04,09,09,29,14.10
2011,04,09,09,30,14.50
2011,04,09,09,31,13.60
2011,04,09,09,32,13.80
2011,04,09,09,33,10.30
2011,04,09,09,34,15.90
2011,04,09,09,35,10.40
2011,04,09,09,36,13.90
2011,04,09,09,37,13.50
2011,04,09,09,38,9.60
2011,04,09,09,39,9.30
2011,04,09,09,40,11.80
2011,04,09,09,41,13.80
2011,04,09,09,42,10.90
2011,04,09,09,43,7.70
2011,04,09,09,44,12.40
2011,04,09,09,45,16.50
2011,04,09,09,46,10.40
2011,04,09,09,47,10.20
2011,04,09,09,48,12.90
2011,04,09,09,49,13.20
2011,04,09,09,50,14.30
2011,04,09,09,51,12.90
2011,04,09,09,52,10.10
2011,04,09,09,53,14.50
2011,04,09,09,54,12.90
2011,04,09,09,55,12.00
2011,04,09,09,56,11.70
2011,04,09,09,57,10.30
2011,04,09,09,58,13.30
2011,04,09,09,59,14.40
2011,04,09,10,00,11.30
2011,04,09,10,01,10.50
2011,04,09,10,02,16.40
2011,04,09,10,03,13.60
2011,04,09,10,04,13.10
2011,04,09,10,05,14.80
2011,04,09,10,06,15.30
2011,04,09,10,07,14.40
2011,04,09,10,08,16.70
2011,04,09,10,09,12.90
2011,04,09,10,10,11.10
2011,04,09,10,11,12.90
2011,04,09,10,12,10.70
2011,04,09,10,13,10.10
2011,04,09,10,14,6.10
2011,04,09,10,15,9.10
2011,04,09,10,16,10.30
2011,04,09,10,17,9.00
2011,04,09,10,18,6.90
2011,04,09,10,19,10.30
2011,04,09,10,20,11.20
2011,04,09,10,21,12.10
2011,04,09,10,22,7.20
2011,04,09,10,23,10.10
2011,04,09,10,24,10.50
2011,04,09,10,25,8.10
2011,04,09,10,26,12.10
2011,04,09,10,27,13.60
2011,04,09,10,28,10.70
2011,04,09,10,29,10.70
2011,04,09,10,30,10.10
2011,04,09,10,31,10.80
2011,04,09,10,32,11.90
2011,04,09,10,33,7.30
2011,04,09,10,34,6.70
2011,04,09,10,35,8.80
2011,04,09,10,36,7.70
2011,04,09,10,37,15.70
2011,04,09,10,38,14.00
2011,04,09,10,39,11.30
2011,04,09,10,40,11.60
2011,04,09,10,41,7.30
2011,04,09,10,42,10.50
2011,04,09,10,43,12.30
2011,04,09,10,44,8.40
2011,04,09,10,45,10.70
2011,04,09,10,46,12.40
2011,04,09,10,47,9.70
2011,04,09,10,48,12.80
2011,04,09,10,49,9.20
2011,04,09,10,50,4.90
2011,04,09,10,51,10.90
2011,04,09,10,52,7.60
2011,04,09,10,53,9.60
2011,04,09,10,54,6.50
2011,04,09,10,55,8.70
2011,04,09,10,56,3.00
2011,04,09,10,57,7.30
2011,04,09,10,58,5.70
2011,04,09,10,59,10.20
2011,04,09,11,00,4.40
2011,04,09,11,01,5.70
2011,04,09,11,02,4.90
2011,04,09,11,03,6.70
2011,04,09,11,04,6.00
2011,04,09,11,05,6.70
2011,04,09,11,06,8.10
2011,04,09,11,07,6.00
2011,04,09,11,08,5.60
2011,04,09,11,09,6.20
2011,04,09,11,10,4.20
2011,04,09,11,11,8.30
2011,04,09,11,12,8.40
2011,04,09,11,13,5.20
2011,04,09,11,14,2.50
2011,04,09,11,15,7.00
2011,04,09,11,16,7.10
2011,04,09,11,17,8.00
2011,04,09,11,18,8.30
2011,04,09,11,19,7.70
2011,04,09,11,20,7.20
2011,04,09,11,21,5.90
2011,04,09,11,22,3.00
2011,04,09,11,23,5.00
2011,04,09,11,24,5.70
2011,04,09,11,25,6.70
2011,04,09,11,26,4.40
2011,04,09,11,27,5.80
2011,04,09,11,28,2.10
2011,04,09,11,29,7.10
2011,04,09,11,30,5.50
2011,04,09,11,31,3.60
2011,04,09,11,32,5.90
2011,04,09,11,33,4.80
2011,04,09,11,34,2.60
2011,04,09,11,35,5.30
2011,04,09,11,36,8.10
2011,04,09,11,37,8.70
2011,04,09,11,38,8.70
2011,04,09,11,39,11.90
2011,04,09,11,40,10.70
2011,04,09,11,41,9.00
2011,04,09,11,42,12.20
2011,04,09,11,43,7.20
2011,04,09,11,44,9.40
2011,04,09,11,45,10.00
2011,04,09,11,46,12.60
2011,04,09,11,47,8.80
2011,04,09,11,48,11.00
2011,04,09,11,49,9.70
2011,04,09,11,50,10.20
2011,04,09,11,51,8.70
2011,04,09,11,52,7.80
2011,04,09,11,53,5.00
2011,04,09,11,54,6.80
2011,04,09,11,55,12.50
2011,04,09,11,56,14.60
2011,04,09,11,57,10.90
2011,04,09,11,58,11.80
2011,04,09,11,59,10.10
2011,04,09,12,00,7.70
2011,04,09,12,01,6.40
2011,04,09,12,02,6.00
2011,04,09,12,03,4.80
2011,04,09,12,04,7.50
2011,04,09,12,05,11.30
2011,04,09,12,06,11.60
2011,04,09,12,07,9.60
2011,04,09,12,08,15.00
2011,04,09,12,09,12.90
2011,04,09,12,10,9.40
2011,04,09,12,11,9.30
2011,04,09,12,12,6.90
2011,04,09,12,13,4.50
2011,04,09,12,14,7.90
2011,04,09,12,15,5.00
2011,04,09,12,16,5.30
2011,04,09,12,17,7.50
2011,04,09,12,18,9.40
2011,04,09,12,19,10.00
2011,04,09,12,20,9.30
2011,04,09,12,21,13.40
2011,04,09,12,22,8.30
2011,04,09,12,23,8.30
2011,04,09,12,24,9.50
2011,04,09,12,25,9.50
2011,04,09,12,26,11.70
2011,04,09,12,27,9.30
2011,04,09,12,28,8.50
2011,04,09,12,29,9.40
2011,04,09,12,30,8.50
2011,04,09,12,31,7.80
2011,04,09,12,32,10.00
2011,04,09,12,33,14.60
2011,04,09,12,34,8.30
2011,04,09,12,35,12.40
2011,04,09,12,36,10.80
2011,04,09,12,37,10.70
2011,04,09,12,38,10.70
2011,04,09,12,39,9.60
2011,04,09,12,40,12.30
2011,04,09,12,41,7.70
2011,04,09,12,42,14.30
2011,04,09,12,43,13.60
2011,04,09,12,44,9.40
2011,04,09,12,45,11.60
2011,04,09,12,46,12.00
2011,04,09,12,47,14.30
2011,04,09,12,48,8.90
2011,04,09,12,49,4.70
2011,04,09,12,50,5.40
2011,04,09,12,51,9.40
2011,04,09,12,52,10.90
2011,04,09,12,53,8.80
2011,04,09,12,54,13.30
2011,04,09,12,55,9.70
2011,04,09,12,56,11.70
2011,04,09,12,57,10.90
2011,04,09,12,58,8.50
2011,04,09,12,59,8.80
2011,04,09,13,00,12.30
2011,04,09,13,01,9.70
2011,04,09,13,02,10.00
2011,04,09,13,03,13.50
2011,04,09,13,04,10.80
2011,04,09,13,05,9.50
2011,04,09,13,06,9.30
2011,04,09,13,07,4.30
2011,04,09,13,08,10.00
2011,04,09,13,09,9.40
2011,04,09,13,10,10.00
2011,04,09,13,11,12.80
2011,04,09,13,12,14.40
2011,04,09,13,13,13.70
2011,04,09,13,14,9.90
2011,04,09,13,15,16.80
2011,04,09,13,16,12.20
2011,04,09,13,17,13.30
2011,04,09,13,18,8.30
2011,04,09,13,19,12.10
2011,04,09,13,20,17.00
2011,04,09,13,21,14.50
2011,04,09,13,22,21.00
2011,04,09,13,23,15.00
2011,04,09,13,24,15.40
2011,04,09,13,25,16.50
2011,04,09,13,26,17.60
2011,04,09,13,27,15.10
2011,04,09,13,28,15.30
2011,04,09,13,29,14.00
2011,04,09,13,30,13.00
2011,04,09,13,31,11.70
2011,04,09,13,32,9.50
2011,04,09,13,33,9.90
2011,04,09,13,34,12.20
2011,04,09,13,35,15.80
2011,04,09,13,36,12.50
2011,04,09,13,37,9.10
2011,04,09,13,38,10.30
2011,04,09,13,39,15.20
2011,04,09,13,40,10.40
2011,04,09,13,41,11.70
2011,04,09,13,42,11.40
2011,04,09,13,43,6.00
2011,04,09,13,44,8.10
2011,04,09,13,45,11.90
2011,04,09,13,46,12.80
2011,04,09,13,47,7.30
2011,04,09,13,48,8.60
2011,04,09,13,49,12.90
2011,04,09,13,50,10.70
2011,04,09,13,51,13.60
2011,04,09,13,52,11.10
2011,04,09,13,53,12.60
2011,04,09,13,54,11.00
2011,04,09,13,55,10.80
2011,04,09,13,56,10.10
2011,04,09,13,57,9.60
2011,04,09,13,58,12.00
2011,04,09,13,59,15.50
2011,04,09,14,00,9.40
2011,04,09,14,01,9.00
2011,04,09,14,02,10.30
2011,04,09,14,03,10.90
2011,04,09,14,04,8.70
2011,04,09,14,05,10.40
2011,04,09,14,06,15.60
2011,04,09,14,07,8.00
2011,04,09,14,08,7.60
2011,04,09,14,09,11.50
2011,04,09,14,10,10.50
2011,04,09,14,11,9.40
2011,04,09,14,12,14.00
2011,04,09,14,13,8.70
2011,04,09,14,14,11.00
2011,04,09,14,15,7.90
2011,04,09,14,16,7.10
2011,04,09,14,17,9.10
2011,04,09,14,18,6.60
2011,04,09,14,19,11.10
2011,04,09,14,20,8.10
2011,04,09,14,21,10.70
2011,04,09,14,22,7.00
2011,04,09,14,23,7.70
2011,04,09,14,24,9.10
2011,04,09,14,25,10.90
2011,04,09,14,26,11.90
2011,04,09,14,27,11.30
2011,04,09,14,28,11.00
2011,04,09,14,29,8.50
2011,04,09,14,30,10.30
2011,04,09,14,31,11.30
2011,04,09,14,32,8.50
2011,04,09,14,33,6.80
2011,04,09,14,34,7.20
2011,04,09,14,35,5.70
2011,04,09,14,36,8.80
2011,04,09,14,37,10.40
2011,04,09,14,38,10.00
2011,04,09,14,39,10.50
2011,04,09,14,40,12.60
2011,04,09,14,41,10.90
2011,04,09,14,42,9.30
2011,04,09,14,43,11.00
2011,04,09,14,44,10.20
2011,04,09,14,45,9.30
2011,04,09,14,46,12.50
2011,04,09,14,47,9.70
2011,04,09,14,48,8.80
2011,04,09,14,49,10.40
2011,04,09,14,50,9.60
2011,04,09,14,51,11.40
2011,04,09,14,52,9.80
2011,04,09,14,53,11.30
2011,04,09,14,54,13.70
2011,04,09,14,55,10.80
2011,04,09,14,56,11.00
2011,04,09,14,57,8.20
2011,04,09,14,58,7.40
2011,04,09,14,59,10.30
2011,04,09,15,00,11.90
2011,04,09,15,01,10.30
2011,04,09,15,02,7.10
2011,04,09,15,03,12.40
2011,04,09,15,04,12.10
2011,04,09,15,05,6.70
2011,04,09,15,06,14.90
2011,04,09,15,07,11.10
2011,04,09,15,08,11.90
2011,04,09,15,09,8.40
2011,04,09,15,10,10.20
2011,04,09,15,11,12.00
2011,04,09,15,12,12.40
2011,04,09,15,13,13.10
2011,04,09,15,14,13.40
2011,04,09,15,15,8.70
2011,04,09,15,16,9.30
2011,04,09,15,17,9.00
2011,04,09,15,18,8.10
2011,04,09,15,19,10.40
2011,04,09,15,20,8.30
2011,04,09,15,21,10.90
2011,04,09,15,22,11.00
2011,04,09,15,23,9.50
2011,04,09,15,24,7.80
2011,04,09,15,25,9.90
2011,04,09,15,26,15.60
2011,04,09,15,27,16.90
2011,04,09,15,28,10.90
2011,04,09,15,29,14.50
2011,04,09,15,30,11.10
2011,04,09,15,31,11.60
2011,04,09,15,32,9.40
2011,04,09,15,33,8.70
2011,04,09,15,34,10.70
2011,04,09,15,35,8.70
2011,04,09,15,36,8.00
2011,04,09,15,37,10.60
2011,04,09,15,38,8.40
2011,04,09,15,39,6.40
2011,04,09,15,40,9.40
2011,04,09,15,41,11.30
2011,04,09,15,42,9.00
2011,04,09,15,43,11.00
2011,04,09,15,44,8.60
2011,04,09,15,45,6.40
2011,04,09,15,46,10.30
2011,04,09,15,47,10.80
2011,04,09,15,48,8.10
2011,04,09,15,49,8.90
2011,04,09,15,50,10.00
2011,04,09,15,51,10.20
2011,04,09,15,52,6.00
2011,04,09,15,53,7.10
2011,04,09,15,54,13.30
2011,04,09,15,55,10.90
2011,04,09,15,56,9.70
2011,04,09,15,57,9.40
2011,04,09,15,58,6.90
2011,04,09,15,59,9.30
2011,04,09,16,00,13.60
2011,04,09,16,01,10.60
2011,04,09,16,02,10.00
2011,04,09,16,03,12.20
2011,04,09,16,04,10.50
2011,04,09,16,05,10.30
2011,04,09,16,06,14.20
2011,04,09,16,07,10.60
2011,04,09,16,08,6.00
2011,04,09,16,09,6.10
2011,04,09,16,10,10.10
2011,04,09,16,11,15.50
2011,04,09,16,12,10.00
2011,04,09,16,13,14.00
2011,04,09,16,14,12.20
2011,04,09,16,15,12.00
2011,04,09,16,16,8.50
2011,04,09,16,17,9.40
2011,04,09,16,18,9.10
2011,04,09,16,19,14.40
2011,04,09,16,20,10.60
2011,04,09,16,21,8.60
2011,04,09,16,22,17.20
2011,04,09,16,23,16.50
2011,04,09,16,24,17.20
2011,04,09,16,25,19.30
2011,04,09,16,26,12.60
2011,04,09,16,27,7.20
2011,04,09,16,28,11.20
2011,04,09,16,29,13.00
2011,04,09,16,30,8.00
2011,04,09,16,31,11.60
2011,04,09,16,32,10.40
2011,04,09,16,33,12.40
2011,04,09,16,34,8.80
2011,04,09,16,35,14.30
2011,04,09,16,36,15.00
2011,04,09,16,37,11.00
2011,04,09,16,38,13.80
2011,04,09,16,39,12.10
2011,04,09,16,40,14.00
2011,04,09,16,41,10.40
2011,04,09,16,42,15.90
2011,04,09,16,43,11.40
2011,04,09,16,44,9.50
2011,04,09,16,45,9.40
2011,04,09,16,46,15.80
2011,04,09,16,47,12.60
2011,04,09,16,48,15.60
2011,04,09,16,49,13.50
2011,04,09,16,50,16.60
2011,04,09,16,51,17.70
2011,04,09,16,52,15.90
2011,04,09,16,53,16.60
2011,04,09,16,54,17.10
2011,04,09,16,55,12.00
2011,04,09,16,56,11.30
2011,04,09,16,57,9.90
2011,04,09,16,58,8.80
2011,04,09,16,59,15.20
2011,04,09,17,00,15.90
2011,04,09,17,01,18.50
2011,04,09,17,02,12.40
2011,04,09,17,03,12.00
2011,04,09,17,04,10.20
2011,04,09,17,05,15.20
2011,04,09,17,06,14.80
2011,04,09,17,07,15.30
2011,04,09,17,08,12.30
2011,04,09,17,09,11.30
2011,04,09,17,10,11.60
2011,04,09,17,11,11.90
2011,04,09,17,12,12.40
2011,04,09,17,13,8.70
2011,04,09,17,14,5.40
2011,04,09,17,15,8.80
2011,04,09,17,16,11.20
2011,04,09,17,17,7.70
2011,04,09,17,18,11.80
2011,04,09,17,19,10.00
2011,04,09,17,20,8.70
2011,04,09,17,21,13.30
2011,04,09,17,22,9.60
2011,04,09,17,23,9.50
2011,04,09,17,24,7.90
2011,04,09,17,25,14.20
2011,04,09,17,26,16.50
2011,04,09,17,27,11.70
2011,04,09,17,28,13.90
2011,04,09,17,29,11.30
2011,04,09,17,30,11.30
2011,04,09,17,31,9.20
2011,04,09,17,32,12.90
2011,04,09,17,33,10.50
2011,04,09,17,34,9.40
2011,04,09,17,35,8.90
2011,04,09,17,36,9.00
2011,04,09,17,37,9.70
2011,04,09,17,38,9.10
2011,04,09,17,39,9.00
2011,04,09,17,40,8.70
2011,04,09,17,41,8.50
2011,04,09,17,42,12.70
2011,04,09,17,43,9.40
2011,04,09,17,44,10.60
2011,04,09,17,45,8.60
2011,04,09,17,46,4.10
2011,04,09,17,47,10.00
2011,04,09,17,48,11.40
2011,04,09,17,49,11.00
2011,04,09,17,50,7.40
2011,04,09,17,51,9.90
2011,04,09,17,52,12.70
2011,04,09,17,53,7.50
2011,04,09,17,54,9.60